Simultaneous Nadir Overpasses (SNOs) Predictions

Prediction of SNOs near US between AQUA and NPP Satellite Orbit:

Table of predicted SNOs near US for the next 10.0 days since TLE Epoch: 12/8/2017
Index Date (AQUA) Time (AQUA) AQUA Lat,Lon Date (NPP) Time (NPP) NPP Lat,Lon Distance(km) Time Diff (sec)
1 12/10/2017 09:23:31 23.43,-113.42 12/10/2017 09:16:07 23.53,-113.96 55.78 444
2 12/13/2017 06:30:17 46.26, -65.04 12/13/2017 06:30:52 46.69, -67.14 168.04 35
3 12/13/2017 08:08:08 49.94, -88.30 12/13/2017 08:11:17 50.43, -90.93 194.59 189
4 12/13/2017 09:47:02 49.88,-113.05 12/13/2017 09:52:45 50.54,-116.25 239.34 343
5 12/15/2017 19:06:17 49.94, -92.52 12/15/2017 19:01:33 49.62, -94.47 144.22 284
6 12/15/2017 20:45:11 50.00,-117.26 12/15/2017 20:43:02 49.57,-119.82 189.41 129
7 12/18/2017 08:34:59 20.05,-101.84 12/18/2017 08:26:39 18.80,-102.43 152.36 500
8 12/18/2017 10:11:43 27.82,-124.68 12/18/2017 10:05:32 27.99,-125.48 80.70 371




NCC Satellite Simultaneous Nadir Overpasses (SNOs) Prediction Service
